Location: Ch�tillon
(48.8024°N, 2.2935°E)
Time: 00:45:12
(UTC+00:00)

Cosmos 614 Rocket - Pass Details

Date: 16 October 2021
Orbit: 733 x 763 km, 74.1° (Epoch: 27 November)

Event Time Altitude Azimuth Distance (km) Brightness Sun altitude
Rises 19:17:28 0° 340° (NNW) 3,173 7.7 -23.4°
Reaches altitude 10° 19:19:54 10° 346° (NNW) 2,247 6.7 -23.8°
Enters shadow 19:24:04 45° 33° (NNE) 998 4.4 -24.5°
